Miami, FL

11:15 PM EST en Diciembre 15, 2018 (GMT -0500)
Miami International

Tiempo Historia de KMIA - Mayo, 2018

Change the Weather History Date:

Miércoles, Mayo 16, 2018

  Actual Average Record
Temperature  
Temperatura media 79 ° F 80 ° F  
Temperatura máxima 86 ° F 87 ° F 95 ° F (1995)
Temperatura mínima 72 ° F 73 ° F 56 ° F (1917)
Degree Days  
Grados día de calefacción 0 0  
Month to date heating degree days 0 0  
Since 1 July heating degree days 85 128  
Cooling Degree Days 14 15  
Month to date cooling degree days 219 223  
Year to date cooling degree days 1263 1116  
Growing Degree Days 28 (Base 50)    
Moisture  
Punto de rocío 74 ° F    
Average Humidity 85    
Maximum Humidity 100    
Minimum Humidity 70    
Precipitación  
Precipitación 0.00 pul 0.16 pul 3.14 pul (1920)
Month to date precipitation 4.52 2.07  
Year to date precipitation 9.89 12.08  
Nieve  
Nieve 0.00 pul - - ()
Month to date snowfall 0.0  
Since 1 July snowfall 0.0  
Grosos de nieve 0.00 pul    
Presión al nivel del mar  
Presión al nivel del mar 29.97 pul    
Viento  
Velocidad del viento 8 mph (ESE)    
Velocidad máxima del viento 22 mph    
Max Gust Speed 29 mph    
Visibilidad 10 Millas    
Eventos Lluvia , Tormenta    
T = Trace of Precipitation, MM = Missing Value Source: NWS Daily Summary

Daily Weather History Graph

Daily Weather History Graph

Search for Another Location

Airport or City:

Astronomía

May. 16, 2018 Salida Puesta
Hora real 6:34 AM EDT 8:00 PM EDT
Crepúsculo civil 6:09 AM EDT 8:25 PM EDT
Crepúsculo náutico 5:40 AM EDT 8:55 PM EDT
Crepúsculo astronómico 5:09 AM EDT 9:26 PM EDT
Luna 7:42 AM EDT 9:27 PM EDT
Horas de luz 14h 15m
Horas de luz
13h 25m
Luna nueva, 2% of the Moon is Illuminated
May 16
Luna nueva
May 21
Cuarto creciente
May 29
Luna llena
Jun 6
Cuarto menguante
Jun 13
Nueva

Hourly Weather History & Observations

Hora (EDT) Temp. Índice de calor Punto de rocío Humedad Presión Visibilidad Wind Dir Velocidad del viento Velocidad de ráfagas Precip Eventos Condiciones
12:53 AM 72.0 ° F - 72.0 ° F 100% 29.99 pul 10.0 mi Este 9.2 mph - N/A   Muy nublado
1:53 AM 73.0 ° F - 73.0 ° F 100% 29.97 pul 10.0 mi Este 5.8 mph - N/A   Muy nublado
2:53 AM 73.0 ° F - 73.0 ° F 100% 29.96 pul 10.0 mi Este 5.8 mph - N/A   Nubes dispersas
3:53 AM 73.0 ° F - 71.1 ° F 93% 29.94 pul 10.0 mi Este 5.8 mph - N/A   Parcialmente nublado
4:53 AM 72.0 ° F - 72.0 ° F 100% 29.93 pul 10.0 mi Sin viento Sin viento - N/A   Parcialmente nublado
5:53 AM 73.9 ° F - 72.0 ° F 93% 29.94 pul 10.0 mi Este 4.6 mph - N/A   Parcialmente nublado
6:53 AM 73.9 ° F - 73.0 ° F 97% 29.95 pul 10.0 mi ESE 5.8 mph - N/A   Parcialmente nublado
7:53 AM 77.0 ° F - 75.9 ° F 96% 29.96 pul 10.0 mi ESE 6.9 mph - N/A   Nubes dispersas
8:53 AM 80.1 ° F 85.8 ° F 77.0 ° F 90% 29.99 pul 10.0 mi SE 11.5 mph - N/A   Nubes dispersas
9:53 AM 82.0 ° F 88.6 ° F 75.0 ° F 79% 29.99 pul 10.0 mi SSE 6.9 mph - N/A   Muy nublado
10:20 AM 82.9 ° F 90.2 ° F 75.0 ° F 77% 29.99 pul 10.0 mi SE 11.5 mph - N/A   Muy nublado
10:53 AM 82.9 ° F 89.4 ° F 73.9 ° F 74% 29.99 pul 10.0 mi Sur 6.9 mph - N/A   Muy nublado
11:26 AM 84.0 ° F 91.9 ° F 75.0 ° F 74% 29.99 pul 10.0 mi SE 13.8 mph - N/A   Muy nublado
11:53 AM 84.9 ° F 92.1 ° F 73.9 ° F 69% 29.99 pul 10.0 mi SE 11.5 mph 18.4 mph N/A   Muy nublado
12:53 PM 84.0 ° F 91.9 ° F 75.0 ° F 74% 29.99 pul 10.0 mi SSE 11.5 mph 20.7 mph N/A   Muy nublado
1:53 PM 84.9 ° F 93.3 ° F 75.0 ° F 72% 29.97 pul 10.0 mi SE 17.3 mph 23.0 mph N/A   Muy nublado
2:50 PM 82.4 ° F 89.5 ° F 75.2 ° F 79% 29.96 pul 10.0 mi ESE 18.4 mph - N/A   Muy nublado
2:53 PM 82.9 ° F 90.2 ° F 75.0 ° F 77% 29.95 pul 10.0 mi ESE 20.7 mph - N/A   Muy nublado
3:41 PM 81.0 ° F 86.2 ° F 73.9 ° F 79% 29.95 pul 10.0 mi SE 16.1 mph - N/A Tormenta Tormenta
3:53 PM 81.0 ° F 86.2 ° F 73.9 ° F 79% 29.96 pul 10.0 mi ESE 18.4 mph 25.3 mph N/A Tormenta Tormenta
4:22 PM 80.1 ° F 84.5 ° F 73.9 ° F 81% 29.96 pul 10.0 mi SE 11.5 mph - N/A Tormenta Tormenta
4:53 PM 81.0 ° F 85.8 ° F 73.0 ° F 77% 29.97 pul 10.0 mi SE 8.1 mph - N/A Tormenta Tormenta
5:53 PM 75.9 ° F - 69.1 ° F 79% 29.96 pul 10.0 mi Oeste 3.5 mph - N/A Tormenta Tormenta
6:31 PM 75.0 ° F - 71.1 ° F 87% 29.97 pul 10.0 mi ONO 8.1 mph - N/A Tormenta Tormenta
6:53 PM 75.0 ° F - 71.1 ° F 87% 29.97 pul 10.0 mi NO 4.6 mph - N/A Tormenta Tormenta
7:17 PM 75.0 ° F - 72.0 ° F 90% 29.97 pul 10.0 mi Este 5.8 mph - N/A   Nublado
7:53 PM 75.9 ° F - 72.0 ° F 87% 29.96 pul 10.0 mi NE 3.5 mph - N/A   Nublado
8:51 PM 77.0 ° F - 73.4 ° F 89% 29.97 pul 10.0 mi Sin viento Sin viento - N/A   Nublado
8:53 PM 77.0 ° F - 73.0 ° F 88% 29.98 pul 10.0 mi Sin viento Sin viento - N/A   Nublado
9:45 PM 78.1 ° F - 75.9 ° F 93% 29.99 pul 10.0 mi ESE 8.1 mph - N/A   Muy nublado
9:53 PM 79.0 ° F - 75.9 ° F 90% 29.99 pul 10.0 mi SE 6.9 mph - N/A   Muy nublado
10:53 PM 79.0 ° F - 75.9 ° F 90% 30.00 pul 10.0 mi SE 6.9 mph - N/A   Nublado
11:53 PM 78.1 ° F - 75.9 ° F 93% 29.99 pul 10.0 mi SE 5.8 mph - N/A   Nublado